Regional Weather Roundup
Issued by NWS

Home | Current Version | Previous Version | Graphics & Text | Print | Product List | Glossary On
Versions: 1 2 3 4 5 6 7 8 9 10 11 12 13 14 15 16 17 18 19 20 21 22 23 24 25 26 27 28 29 30 31 32 33 34 35 36 37 38 39 40 41 42 43 44 45 46 47 48 49 50
000
ASUS43 KFSD 300810
RWRSD

WEATHER ROUNDUP FOR SOUTH DAKOTA
NATIONAL WEATHER SERVICE SIOUX FALLS SD
300 AM CDT THU MAR 30 2017

NOTE: "FAIR" INDICATES FEW OR NO CLOUDS BELOW 12,000 FEET WITH NO
SIGNIFICANT WEATHER AND/OR OBSTRUCTIONS TO VISIBILITY.


SDZ001>005-009-010-012>017-300900-
NORTHWEST AND NORTH CENTRAL SOUTH DAKOTA

CITY           SKY/WX    TMP DP  RH WIND       PRES   REMARKS
BUFFALO          N/A     43  38  82 S16       29.75F
FAITH            N/A     34  34 100 MISG      29.88F
MOBRIDGE       CLEAR     35  30  82 SE8       29.93F WCI  29
$$

SDZ012>016-024>037-041>051-057-063-072>074-300900-
SOUTHWEST AND SOUTH CENTRAL SOUTH DAKOTA

CITY           SKY/WX    TMP DP  RH WIND       PRES   REMARKS
RAPID CTY ARPT CLEAR     34  33  96 SE7       29.87F WCI  28
PIERRE         PTCLDY    34  32  92 S7        29.95S WCI  28
CUSTER         CLOUDY    34  32  92 W5        29.89F WCI  30
ELLSWORTH AFB  CLEAR     39  39  99 CALM      29.86F
PHILIP         CLEAR     31  30  96 E8        29.92F WCI  23
PINE RIDGE     CLEAR     36  36 100 CALM      29.89F
SPEARFISH      FAIR      41  34  75 SW7       29.83F
WINNER         CLOUDY    40  36  86 E7        29.94F
$$

SDZ004>011-016>023-039-040-300900-
NORTHEAST SOUTH DAKOTA

CITY           SKY/WX    TMP DP  RH WIND       PRES   REMARKS
ABERDEEN       MOCLDY    34  31  88 E7        29.99F WCI  28
WATERTOWN      CLOUDY    38  36  92 E8        29.97F
BROOKINGS      CLOUDY    38  35  89 NE10      29.95F
SISSETON         N/A     40  38  93 S7        30.00F
$$

SDZ017-020-022-023-036>040-048>070-300900-
SOUTHEAST SOUTH DAKOTA

CITY           SKY/WX    TMP DP  RH WIND       PRES   REMARKS
SIOUX FALLS    CLOUDY    39  38  96 NE12      29.92F
HURON          CLOUDY    40  38  93 NE6       29.97F
CHAMBERLAIN    CLOUDY    40  38  93 NE3       29.95F
MITCHELL       CLOUDY    41  37  86 NE6       29.96F
YANKTON        CLOUDY    37  36  93 N9        29.90S
$$

ABBREVIATIONS USED IN REMARKS
   TC - TEMPERATURE IN CELSIUS
  WCI - WIND CHILL INDEX
   HX - HEAT INDEX
  VSB - VISIBILITY




USA.gov is the U.S. government's official web portal to all federal, state and local government web resources and services.